Time,TemperatureF,DewpointF,PressureIn,WindDirection,WindDirectionDegrees,WindSpeedMPH,WindSpeedGustMPH,Humidity,HourlyPrecipIn,Conditions,Clouds,dailyrainin,SolarRadiationWatts/m^2,SoftwareType,DateUTC
2013-01-16 00:02:00,40.0,24.0,-100.00,ESE,102,8.0,12.0,52,0.00,,,0.00,0.000000,,2013-01-16 08:02:00,
2013-01-16 00:11:00,39.0,24.0,-100.00,East,94,7.0,12.0,54,0.00,,,0.00,0.000000,,2013-01-16 08:11:00,
2013-01-16 00:32:00,39.0,24.0,-100.00,East,94,7.0,12.0,54,0.00,,,0.00,0.000000,,2013-01-16 08:32:00,
2013-01-16 00:42:00,39.0,24.0,-100.00,East,94,7.0,12.0,54,0.00,,,0.00,0.000000,,2013-01-16 08:42:00,
2013-01-16 00:52:00,39.0,24.0,-100.00,East,94,7.0,12.0,54,0.00,,,0.00,0.000000,,2013-01-16 08:52:00,
2013-01-16 01:02:00,39.0,24.0,-100.00,East,94,7.0,12.0,54,0.00,,,0.00,0.000000,,2013-01-16 09:02:00,
2013-01-16 01:11:00,37.0,24.0,-100.00,East,92,5.0,11.0,60,0.00,,,0.00,0.000000,,2013-01-16 09:11:00,
2013-01-16 01:33:00,37.0,24.0,-100.00,East,92,5.0,11.0,60,0.00,,,0.00,0.000000,,2013-01-16 09:33:00,
2013-01-16 01:43:00,37.0,24.0,-100.00,East,92,5.0,11.0,60,0.00,,,0.00,0.000000,,2013-01-16 09:43:00,
2013-01-16 01:52:00,37.0,24.0,-100.00,East,92,5.0,11.0,60,0.00,,,0.00,0.000000,,2013-01-16 09:52:00,
2013-01-16 02:02:00,37.0,24.0,-100.00,East,92,5.0,11.0,60,0.00,,,0.00,0.000000,,2013-01-16 10:02:00,
2013-01-16 02:11:00,38.0,25.0,-100.00,East,97,7.0,9.0,59,0.00,,,0.00,0.000000,,2013-01-16 10:11:00,
2013-01-16 02:32:00,38.0,25.0,-100.00,East,97,7.0,9.0,59,0.00,,,0.00,0.000000,,2013-01-16 10:32:00,
2013-01-16 02:43:00,38.0,25.0,-100.00,East,97,7.0,9.0,59,0.00,,,0.00,0.000000,,2013-01-16 10:43:00,
2013-01-16 02:53:00,38.0,25.0,-100.00,East,97,7.0,9.0,59,0.00,,,0.00,0.000000,,2013-01-16 10:53:00,
2013-01-16 03:02:00,38.0,25.0,-100.00,East,97,7.0,9.0,59,0.00,,,0.00,0.000000,,2013-01-16 11:02:00,
2013-01-16 03:11:00,40.0,25.0,-100.00,ENE,77,9.0,12.0,54,0.00,,,0.00,0.000000,,2013-01-16 11:11:00,
2013-01-16 03:33:00,40.0,25.0,-100.00,ENE,77,9.0,12.0,54,0.00,,,0.00,0.000000,,2013-01-16 11:33:00,
2013-01-16 03:43:00,40.0,25.0,-100.00,ENE,77,9.0,12.0,54,0.00,,,0.00,0.000000,,2013-01-16 11:43:00,
2013-01-16 03:53:00,40.0,25.0,-100.00,ENE,77,9.0,12.0,54,0.00,,,0.00,0.000000,,2013-01-16 11:53:00,
2013-01-16 04:02:00,40.0,25.0,-100.00,ENE,77,9.0,12.0,54,0.00,,,0.00,0.000000,,2013-01-16 12:02:00,
2013-01-16 04:11:00,39.0,25.0,-100.00,East,99,7.0,10.0,56,0.00,,,0.00,0.000000,,2013-01-16 12:11:00,
2013-01-16 04:33:00,39.0,25.0,-100.00,East,99,7.0,10.0,56,0.00,,,0.00,0.000000,,2013-01-16 12:33:00,
2013-01-16 04:43:00,39.0,25.0,-100.00,East,99,7.0,10.0,56,0.00,,,0.00,0.000000,,2013-01-16 12:43:00,
2013-01-16 04:53:00,39.0,25.0,-100.00,East,99,7.0,10.0,56,0.00,,,0.00,0.000000,,2013-01-16 12:53:00,
2013-01-16 05:02:00,39.0,25.0,-100.00,East,99,7.0,10.0,56,0.00,,,0.00,0.000000,,2013-01-16 13:02:00,
2013-01-16 05:11:00,39.0,24.0,-100.00,East,91,8.0,12.0,55,0.00,,,0.00,0.000000,,2013-01-16 13:11:00,
2013-01-16 05:33:00,39.0,24.0,-100.00,East,91,8.0,12.0,55,0.00,,,0.00,0.000000,,2013-01-16 13:33:00,
2013-01-16 05:43:00,39.0,24.0,-100.00,East,91,8.0,12.0,55,0.00,,,0.00,0.000000,,2013-01-16 13:43:00,
2013-01-16 05:53:00,39.0,24.0,-100.00,East,91,8.0,12.0,55,0.00,,,0.00,0.000000,,2013-01-16 13:53:00,
2013-01-16 06:02:00,39.0,24.0,-100.00,East,91,8.0,12.0,55,0.00,,,0.00,0.000000,,2013-01-16 14:02:00,
2013-01-16 06:11:00,39.0,23.0,-100.00,East,82,9.0,12.0,53,0.00,,,0.00,0.000000,,2013-01-16 14:11:00,
2013-01-16 06:33:00,39.0,23.0,-100.00,East,82,9.0,12.0,53,0.00,,,0.00,0.000000,,2013-01-16 14:33:00,
2013-01-16 06:43:00,39.0,23.0,-100.00,East,82,9.0,12.0,53,0.00,,,0.00,0.000000,,2013-01-16 14:43:00,
2013-01-16 06:53:00,39.0,23.0,-100.00,East,82,9.0,12.0,53,0.00,,,0.00,0.000000,,2013-01-16 14:53:00,
2013-01-16 07:02:00,39.0,23.0,-100.00,East,82,9.0,12.0,53,0.00,,,0.00,0.000000,,2013-01-16 15:02:00,
2013-01-16 07:11:00,41.0,24.0,-100.00,East,88,6.0,12.0,50,0.00,,,0.00,0.000000,,2013-01-16 15:11:00,
2013-01-16 07:43:00,41.0,24.0,-100.00,East,88,6.0,12.0,50,0.00,,,0.00,0.000000,,2013-01-16 15:43:00,
2013-01-16 07:53:00,41.0,24.0,-100.00,East,88,6.0,12.0,50,0.00,,,0.00,0.000000,,2013-01-16 15:53:00,
2013-01-16 08:03:00,41.0,24.0,-100.00,East,88,6.0,12.0,50,0.00,,,0.00,0.000000,,2013-01-16 16:03:00,
2013-01-16 08:33:00,46.0,22.0,-100.00,East,83,9.0,15.0,39,0.00,,,0.00,36.000000,,2013-01-16 16:33:00,
2013-01-16 09:33:00,51.0,25.0,-100.00,ESE,110,6.0,12.0,36,0.00,,,0.00,214.000000,,2013-01-16 17:33:00,
2013-01-16 10:11:00,54.0,23.0,-100.00,ESE,115,11.0,18.0,30,0.00,,,0.00,365.000000,,2013-01-16 18:11:00,
2013-01-16 10:33:00,54.0,23.0,-100.00,ESE,115,11.0,18.0,30,0.00,,,0.00,365.000000,,2013-01-16 18:33:00,
2013-01-16 11:11:00,56.0,23.0,-100.00,SSE,156,12.0,22.0,28,0.00,,,0.00,481.000000,,2013-01-16 19:11:00,
2013-01-16 11:33:00,56.0,23.0,-100.00,SSE,156,12.0,22.0,28,0.00,,,0.00,481.000000,,2013-01-16 19:33:00,
2013-01-16 11:43:00,56.0,23.0,-100.00,SSE,156,12.0,22.0,28,0.00,,,0.00,481.000000,,2013-01-16 19:43:00,
2013-01-16 11:53:00,56.0,23.0,-100.00,SSE,156,12.0,22.0,28,0.00,,,0.00,481.000000,,2013-01-16 19:53:00,
2013-01-16 12:02:00,56.0,23.0,-100.00,SSE,156,12.0,22.0,28,0.00,,,0.00,481.000000,,2013-01-16 20:02:00,
2013-01-16 12:43:00,63.0,28.0,-100.00,ESE,118,4.0,17.0,26,0.00,,,0.00,546.000000,,2013-01-16 20:43:00,
2013-01-16 12:53:00,63.0,28.0,-100.00,ESE,118,4.0,17.0,26,0.00,,,0.00,546.000000,,2013-01-16 20:53:00,
2013-01-16 13:11:00,60.0,28.0,-100.00,WNW,293,8.0,13.0,30,0.00,,,0.00,553.000000,,2013-01-16 21:11:00,
2013-01-16 13:43:00,60.0,28.0,-100.00,WNW,293,8.0,13.0,30,0.00,,,0.00,553.000000,,2013-01-16 21:43:00,
2013-01-16 13:53:00,60.0,28.0,-100.00,WNW,293,8.0,13.0,30,0.00,,,0.00,553.000000,,2013-01-16 21:53:00,
2013-01-16 14:02:00,60.0,28.0,-100.00,WNW,293,8.0,13.0,30,0.00,,,0.00,553.000000,,2013-01-16 22:02:00,
2013-01-16 14:11:00,60.0,30.0,-100.00,WNW,295,6.0,12.0,32,0.00,,,0.00,502.000000,,2013-01-16 22:11:00,
2013-01-16 14:33:00,60.0,30.0,-100.00,WNW,295,6.0,12.0,32,0.00,,,0.00,502.000000,,2013-01-16 22:33:00,
2013-01-16 14:43:00,60.0,30.0,-100.00,WNW,295,6.0,12.0,32,0.00,,,0.00,502.000000,,2013-01-16 22:43:00,
2013-01-16 14:52:00,60.0,30.0,-100.00,WNW,295,6.0,12.0,32,0.00,,,0.00,502.000000,,2013-01-16 22:52:00,
2013-01-16 15:02:00,60.0,30.0,-100.00,WNW,295,6.0,12.0,32,0.00,,,0.00,502.000000,,2013-01-16 23:02:00,
2013-01-16 15:11:00,60.0,32.0,-100.00,NW,304,7.0,12.0,35,0.00,,,0.00,397.000000,,2013-01-16 23:11:00,
2013-01-16 15:33:00,60.0,32.0,-100.00,NW,304,7.0,12.0,35,0.00,,,0.00,397.000000,,2013-01-16 23:33:00,
2013-01-16 15:43:00,60.0,32.0,-100.00,NW,304,7.0,12.0,35,0.00,,,0.00,397.000000,,2013-01-16 23:43:00,
2013-01-16 15:53:00,60.0,32.0,-100.00,NW,304,7.0,12.0,35,0.00,,,0.00,397.000000,,2013-01-16 23:53:00,
2013-01-16 16:02:00,60.0,32.0,-100.00,NW,304,7.0,12.0,35,0.00,,,0.00,397.000000,,2013-01-17 00:02:00,
2013-01-16 16:11:00,59.0,33.0,-100.00,West,277,6.0,9.0,37,0.00,,,0.00,160.000000,,2013-01-17 00:11:00,
2013-01-16 16:33:00,59.0,33.0,-100.00,West,277,6.0,9.0,37,0.00,,,0.00,160.000000,,2013-01-17 00:33:00,
2013-01-16 16:42:00,59.0,33.0,-100.00,West,277,6.0,9.0,37,0.00,,,0.00,160.000000,,2013-01-17 00:42:00,
2013-01-16 16:52:00,59.0,33.0,-100.00,West,277,6.0,9.0,37,0.00,,,0.00,160.000000,,2013-01-17 00:52:00,
2013-01-16 17:02:00,59.0,33.0,-100.00,West,277,6.0,9.0,37,0.00,,,0.00,160.000000,,2013-01-17 01:02:00,
2013-01-16 17:11:00,53.0,32.0,-100.00,West,274,0.0,7.0,44,0.00,,,0.00,57.000000,,2013-01-17 01:11:00,
2013-01-16 17:33:00,53.0,32.0,-100.00,West,274,0.0,7.0,44,0.00,,,0.00,57.000000,,2013-01-17 01:33:00,
2013-01-16 17:43:00,53.0,32.0,-100.00,West,274,0.0,7.0,44,0.00,,,0.00,57.000000,,2013-01-17 01:43:00,
2013-01-16 17:52:00,53.0,32.0,-100.00,West,274,0.0,7.0,44,0.00,,,0.00,57.000000,,2013-01-17 01:52:00,
2013-01-16 18:02:00,53.0,32.0,-100.00,West,274,0.0,7.0,44,0.00,,,0.00,57.000000,,2013-01-17 02:02:00,
2013-01-16 18:11:00,46.0,32.0,-100.00,East,91,5.0,7.0,57,0.00,,,0.00,2.000000,,2013-01-17 02:11:00,
2013-01-16 18:32:00,46.0,32.0,-100.00,East,91,5.0,7.0,57,0.00,,,0.00,2.000000,,2013-01-17 02:32:00,
2013-01-16 18:43:00,46.0,32.0,-100.00,East,91,5.0,7.0,57,0.00,,,0.00,2.000000,,2013-01-17 02:43:00,
2013-01-16 18:52:00,46.0,32.0,-100.00,East,91,5.0,7.0,57,0.00,,,0.00,2.000000,,2013-01-17 02:52:00,
2013-01-16 19:02:00,46.0,32.0,-100.00,East,91,5.0,7.0,57,0.00,,,0.00,2.000000,,2013-01-17 03:02:00,
2013-01-16 19:11:00,43.0,31.0,-100.00,ESE,119,2.0,9.0,62,0.00,,,0.00,0.000000,,2013-01-17 03:11:00,
2013-01-16 19:33:00,43.0,31.0,-100.00,ESE,119,2.0,9.0,62,0.00,,,0.00,0.000000,,2013-01-17 03:33:00,
2013-01-16 19:43:00,43.0,31.0,-100.00,ESE,119,2.0,9.0,62,0.00,,,0.00,0.000000,,2013-01-17 03:43:00,
2013-01-16 19:52:00,43.0,31.0,-100.00,ESE,119,2.0,9.0,62,0.00,,,0.00,0.000000,,2013-01-17 03:52:00,
2013-01-16 20:02:00,43.0,31.0,-100.00,ESE,119,2.0,9.0,62,0.00,,,0.00,0.000000,,2013-01-17 04:02:00,
2013-01-16 20:11:00,47.0,28.0,-100.00,East,94,8.0,12.0,47,0.00,,,0.00,0.000000,,2013-01-17 04:11:00,
2013-01-16 20:33:00,47.0,28.0,-100.00,East,94,8.0,12.0,47,0.00,,,0.00,0.000000,,2013-01-17 04:33:00,
2013-01-16 20:43:00,47.0,28.0,-100.00,East,94,8.0,12.0,47,0.00,,,0.00,0.000000,,2013-01-17 04:43:00,
2013-01-16 20:52:00,47.0,28.0,-100.00,East,94,8.0,12.0,47,0.00,,,0.00,0.000000,,2013-01-17 04:52:00,
2013-01-16 21:03:00,47.0,28.0,-100.00,East,94,8.0,12.0,47,0.00,,,0.00,0.000000,,2013-01-17 05:03:00,
2013-01-16 21:11:00,51.0,29.0,-100.00,ESE,111,13.0,16.0,42,0.00,,,0.00,0.000000,,2013-01-17 05:11:00,
2013-01-16 21:33:00,51.0,29.0,-100.00,ESE,111,13.0,16.0,42,0.00,,,0.00,0.000000,,2013-01-17 05:33:00,
2013-01-16 21:43:00,51.0,29.0,-100.00,ESE,111,13.0,16.0,42,0.00,,,0.00,0.000000,,2013-01-17 05:43:00,
2013-01-16 21:53:00,51.0,29.0,-100.00,ESE,111,13.0,16.0,42,0.00,,,0.00,0.000000,,2013-01-17 05:53:00,
2013-01-16 22:02:00,51.0,29.0,-100.00,ESE,111,13.0,16.0,42,0.00,,,0.00,0.000000,,2013-01-17 06:02:00,
2013-01-16 22:11:00,50.0,25.0,-100.00,East,101,8.0,18.0,38,0.00,,,0.00,0.000000,,2013-01-17 06:11:00,
2013-01-16 22:33:00,50.0,25.0,-100.00,East,101,8.0,18.0,38,0.00,,,0.00,0.000000,,2013-01-17 06:33:00,
2013-01-16 22:42:00,50.0,25.0,-100.00,East,101,8.0,18.0,38,0.00,,,0.00,0.000000,,2013-01-17 06:42:00,
2013-01-16 22:52:00,50.0,25.0,-100.00,East,101,8.0,18.0,38,0.00,,,0.00,0.000000,,2013-01-17 06:52:00,
2013-01-16 23:02:00,50.0,25.0,-100.00,East,101,8.0,18.0,38,0.00,,,0.00,0.000000,,2013-01-17 07:02:00,
2013-01-16 23:11:00,51.0,24.0,-100.00,East,99,10.0,18.0,35,0.00,,,0.00,0.000000,,2013-01-17 07:11:00,
2013-01-16 23:33:00,51.0,24.0,-100.00,East,99,10.0,18.0,35,0.00,,,0.00,0.000000,,2013-01-17 07:33:00,
2013-01-16 23:42:00,51.0,24.0,-100.00,East,99,10.0,18.0,35,0.00,,,0.00,0.000000,,2013-01-17 07:42:00,
2013-01-16 23:52:00,51.0,24.0,-100.00,East,99,10.0,18.0,35,0.00,,,0.00,0.000000,,2013-01-17 07:52:00,